Watsonville, CA

12:52 PM PST on January 18, 2018 (GMT -0800)
Watsonville Municipal

Weather History for KWVI - July, 2014

Change the Weather History Date:

Saturday, July 19, 2014

  Actual Average Record
Temperature  
Mean Temperature 67 °F 63 °F  
Max Temperature 74 °F 73 °F 85 °F (2015)
Min Temperature 60 °F 53 °F 49 °F (2016)
Degree Days  
Heating Degree Days 0    
Month to date heating degree days 15  
Since 1 June heating degree days 108  
Since 1 July heating degree days 15  
Cooling Degree Days 2    
Month to date cooling degree days 15  
Year to date cooling degree days 72  
Since 1 June cooling degree days 28  
Growing Degree Days 15 (Base 50)    
Moisture  
Dew Point 56 °F    
Average Humidity 71    
Maximum Humidity 84    
Minimum Humidity 57    
Precipitation  
Precipitation 0.00 in - 0.01 in (1991)
Month to date precipitation 0.06  
Year to date precipitation 8.24  
Since 1 July precipitation 0.06  
Sea Level Pressure  
Sea Level Pressure 29.97 in    
Wind  
Wind Speed 5 mph (SW)    
Max Wind Speed 15 mph    
Max Gust Speed 20 mph    
Visibility 10 miles    
Events      
T = Trace of Precipitation, MM = Missing Value Source: NWS Daily Summary

Daily Weather History Graph

Daily Weather History Graph

Search for Another Location

Airport or City:

Trip Planner

Search our weather history database for the weather conditions in past years. The results will help you decide how hot, cold, wet, or windy it might be!

Date:

Astronomy

Jul. 19, 2014 Rise Set
Actual Time 6:02 AM PDT 8:24 PM PDT
Civil Twilight 5:32 AM PDT 8:53 PM PDT
Nautical Twilight 4:56 AM PDT 9:30 PM PDT
Astronomical Twilight 4:15 AM PDT 10:10 PM PDT
Moon 12:36 AM PDT (7/19) 2:14 PM PDT (7/19)
Length of Visible Light 15h 21m
Length of Day
14h 21m
Last Quarter, 43% of the Moon is Illuminated
Jul 19
Last Quarter
Jul 26
New
Aug 3
First Quarter
Aug 10
Full
Aug 17
Last Quarter

Hourly Weather History & Observations

Time (PDT) Temp. Dew Point Humidity Pressure Visibility Wind Dir Wind Speed Gust Speed Precip Events Conditions
12:07 AM 57.9 °F 54.0 °F 87% 29.99 in 10.0 mi Calm Calm - N/A   Mostly Cloudy
12:53 AM 61.0 °F 55.0 °F 81% 29.99 in 10.0 mi Variable 3.5 mph - N/A   Overcast
1:53 AM 62.1 °F 55.9 °F 80% 29.97 in 10.0 mi Calm Calm - N/A   Overcast
2:05 AM 62.1 °F 55.9 °F 80% 29.97 in 10.0 mi Calm Calm - N/A   Overcast
2:53 AM 62.1 °F 55.9 °F 80% 29.96 in 10.0 mi SSW 3.5 mph - N/A   Overcast
3:53 AM 62.1 °F 55.9 °F 80% 29.95 in 10.0 mi Calm Calm - N/A   Overcast
4:53 AM 61.0 °F 55.9 °F 83% 29.96 in 10.0 mi Calm Calm - N/A   Overcast
5:53 AM 61.0 °F 55.9 °F 83% 29.96 in 10.0 mi Calm Calm - N/A   Overcast
6:53 AM 61.0 °F 55.9 °F 83% 29.97 in 10.0 mi Calm Calm - N/A   Overcast
7:53 AM 62.1 °F 55.9 °F 80% 29.98 in 10.0 mi Calm Calm - N/A   Overcast
8:53 AM 64.9 °F 55.9 °F 73% 29.98 in 10.0 mi South 3.5 mph - N/A   Overcast
9:24 AM 64.9 °F 55.9 °F 73% 29.98 in 10.0 mi Variable 3.5 mph - N/A   Overcast
9:53 AM 66.0 °F 55.9 °F 70% 29.98 in 10.0 mi Variable 3.5 mph - N/A   Overcast
10:53 AM 71.1 °F 57.0 °F 61% 29.97 in 10.0 mi Variable 6.9 mph - N/A   Partly Cloudy
11:53 AM 71.1 °F 57.0 °F 61% 29.98 in 10.0 mi SSW 10.4 mph - N/A   Clear
12:53 PM 73.0 °F 57.0 °F 57% 29.98 in 10.0 mi WSW 11.5 mph - N/A   Clear
1:53 PM 71.1 °F 55.9 °F 59% 29.98 in 10.0 mi SW 15.0 mph - N/A   Clear
2:53 PM 72.0 °F 55.9 °F 57% 29.98 in 10.0 mi WSW 13.8 mph - N/A   Clear
3:53 PM 71.1 °F 55.9 °F 59% 29.97 in 10.0 mi SW 10.4 mph - N/A   Clear
4:53 PM 71.1 °F 55.9 °F 59% 29.97 in 10.0 mi Variable 4.6 mph - N/A   Clear
5:53 PM 70.0 °F 55.9 °F 61% 29.96 in 10.0 mi SSW 6.9 mph - N/A   Clear
6:53 PM 69.1 °F 55.0 °F 61% 29.97 in 10.0 mi WSW 9.2 mph - N/A   Partly Cloudy
8:53 PM 64.0 °F 57.0 °F 78% 29.96 in 10.0 mi WSW 3.5 mph - N/A   Clear
10:53 PM 63.0 °F 57.0 °F 81% 29.96 in 10.0 mi Calm Calm - N/A   Clear
11:53 PM 62.1 °F 57.0 °F 84% 29.96 in 10.0 mi Calm Calm - N/A   Clear